COSMOS 2251 DEB, 40796

Orbit data source: Space-Track

COSMOS 2251 DEB, 40796 is space debris in LEO originally from a launch on Wed, 16 Jun 1993 UTC launched from the Plesetsk Missile And Space Complex (PKMTR). The debris from Iridium 33, an American commercial communications satellite, has been tracked extensively since its accidental collision with the defunct Russian satellite Cosmos 2251 in 2009. This event, occurring at high speed in low Earth orbit (LEO), generated thousands of pieces of space debris, significantly increasing the risk of further collisions. The Iridium 33 debris cloud has impacted space traffic management and orbital debris mitigation strategies, making it a subject of ongoing study in space situational awareness.

Loading next visibility...
COSMOS 2251 DEB details
Identifier
40796, 1993-036BVZ
Orbit
LEO
Last TLE update7 hours ago
Origin
Flag of CISKVR (CIS)
ManufacturerUnknown
MissionSpacecraft
Bus & MotorUnknown
MassUnknown
Launch date (UTC)
1993-06-16 (32 years ago)
Launch vehicleUnknown
Launch site
Plesetsk Missile And Space Complex (PKMTR)
Object type
Payload
Rocket body
Debris
Shape & HBRUnknown
Radar Cross SectionSmall (<0.1 m²)

Expand to show TLE details & history

TLE from 7 hours ago
0 COSMOS 2251 DEB
1 40796U 93036BVZ 24361.57964644  .00012615  00000-0  18027-2 0  9993
2 40796  74.0164 113.4345 0064198 338.8657  32.4139 14.75293112709686
Epoch: 2024-12-26T13:54Z
Definitive object data (Epoch: 2024-12-26T13:54:41.452Z)
Latitude11.17689°
Longitude172.43152°
Altitude608.137 km
Speed7.577 km/s
True Right ascension07h 46m 38s
True Declination11° 06' 37"
Sunlit
Object was in full shadow at TLE epoch
Visualization TLE readout
Latitude32.71186°
Longitude179.20876°
Altitude622.644 km
Speed7.564 km/s
Apparent Right ascension08h 04m 51s
Apparent Declination-1° 37' 55"
Sunlit
Object is in full shadow
Visualization observer readout
Local Sidereal Time19:54:09
Azimuth355.688° N
Elevation-51.639°
Doppler factor1
Orbital elements
Apogee altitude686.87 km
Perigee altitude596.737 km
Semi-major axis7,019.94 km
Eccentricity0.0064198
Inclination74.0164°
RAAN113.4345°
Arg. of periapsis338.8657°
True anomaly32.81092°
Mean anomaly32.4139°
Eccentric anomaly32.61214°
Mean motion3.69014 °/min
BSTAR0.0018027
Orbital period97.56 mins
Loading maneuver chart data...

COSMOS 2251 DEB Visibility forecast

Observer location: undefined°, undefined

Span
Click to sort rows by Start time (UTC) header in descending order
Start Az.
Max El. time (UTC)
Max El. Az.
Max El.
End time (UTC)
End Az.
6 mins2024-12-27 07:53:19.003Z141.127° SSE2024-12-27 07:56:19.003Z96.082° ESE18.146°2024-12-27 07:59:19.003Z53.273° ENE
7 mins2024-12-27 09:32:19.003Z235.097° WSW2024-12-27 09:35:19.003Z295.334° NW30.354°2024-12-27 09:39:19.003Z1.381° NNE
6 mins2024-12-27 18:05:19.003Z17.481° NNE2024-12-27 18:08:19.003Z71.143° E24.052°2024-12-27 18:11:19.003Z115.423° SE
7 mins2024-12-27 19:44:19.003Z311.241° NW2024-12-27 19:47:19.003Z258.35° W27.305°2024-12-27 19:51:19.003Z198.788° SSW
|